Time,TemperatureF,DewpointF,PressureIn,WindDirection,WindDirectionDegrees,WindSpeedMPH,WindSpeedGustMPH,Humidity,HourlyPrecipIn,Conditions,Clouds,dailyrainin,SoftwareType,DateUTC
2013-02-21 00:01:00,36.0,35.0,30.10,SW,232,0.0,-999.0,95,-99.99,,,-99.99,,2013-02-21 08:01:00,
2013-02-21 00:11:00,36.0,35.0,30.11,SW,232,0.0,-999.0,95,-99.99,,,-99.99,,2013-02-21 08:11:00,
2013-02-21 00:21:00,36.0,35.0,30.11,SW,232,0.0,-999.0,95,-99.99,,,-99.99,,2013-02-21 08:21:00,
2013-02-21 00:31:00,36.0,35.0,30.11,SW,232,0.0,-999.0,95,-99.99,,,-99.99,,2013-02-21 08:31:00,
2013-02-21 00:41:00,36.0,35.0,30.11,SW,232,0.0,-999.0,95,-99.99,,,-99.99,,2013-02-21 08:41:00,
2013-02-21 00:52:00,36.0,35.0,30.11,South,181,0.0,-999.0,96,-99.99,,,-99.99,,2013-02-21 08:52:00,
2013-02-21 01:01:00,36.0,35.0,30.11,South,181,0.0,-999.0,96,-99.99,,,-99.99,,2013-02-21 09:01:00,
2013-02-21 01:11:00,36.0,35.0,30.11,South,181,0.0,-999.0,96,-99.99,,,-99.99,,2013-02-21 09:11:00,
2013-02-21 01:22:00,36.0,35.0,30.11,South,181,0.0,-999.0,96,-99.99,,,-99.99,,2013-02-21 09:22:00,
2013-02-21 01:31:00,36.0,35.0,30.12,WNW,283,0.0,-999.0,96,-99.99,,,-99.99,,2013-02-21 09:31:00,
2013-02-21 01:41:00,36.0,35.0,30.12,WNW,283,0.0,-999.0,96,-99.99,,,-99.99,,2013-02-21 09:41:00,
2013-02-21 01:51:00,36.0,35.0,30.12,WNW,283,0.0,-999.0,96,-99.99,,,-99.99,,2013-02-21 09:51:00,
2013-02-21 02:01:00,36.0,35.0,30.12,WNW,283,0.0,-999.0,96,-99.99,,,-99.99,,2013-02-21 10:01:00,
2013-02-21 02:11:00,36.0,35.0,30.12,WNW,283,0.0,-999.0,96,-99.99,,,-99.99,,2013-02-21 10:11:00,
2013-02-21 02:21:00,35.0,34.0,30.13,WNW,283,0.0,-999.0,96,-99.99,,,-99.99,,2013-02-21 10:21:00,
2013-02-21 02:31:00,35.0,34.0,30.14,WNW,283,0.0,-999.0,95,-99.99,,,-99.99,,2013-02-21 10:31:00,
2013-02-21 02:41:00,35.0,34.0,30.14,WNW,283,0.0,-999.0,95,-99.99,,,-99.99,,2013-02-21 10:41:00,
2013-02-21 02:51:00,34.0,33.0,30.14,WNW,282,0.0,-999.0,96,-99.99,,,-99.99,,2013-02-21 10:51:00,
2013-02-21 03:00:00,34.0,33.0,30.14,WNW,283,0.0,-999.0,96,-99.99,,,-99.99,,2013-02-21 11:00:00,
2013-02-21 03:10:00,34.0,33.0,30.14,WNW,283,0.0,-999.0,96,-99.99,,,-99.99,,2013-02-21 11:10:00,
2013-02-21 03:21:00,34.0,33.0,30.15,WNW,283,0.0,-999.0,96,-99.99,,,-99.99,,2013-02-21 11:21:00,
2013-02-21 03:31:00,33.0,32.0,30.14,WNW,283,0.0,-999.0,95,-99.99,,,-99.99,,2013-02-21 11:31:00,
2013-02-21 03:41:00,33.0,32.0,30.14,WNW,283,0.0,-999.0,95,-99.99,,,-99.99,,2013-02-21 11:41:00,
2013-02-21 03:51:00,33.0,32.0,30.15,WNW,282,0.0,-999.0,95,-99.99,,,-99.99,,2013-02-21 11:51:00,
2013-02-21 04:01:00,33.0,32.0,30.16,WNW,283,0.0,-999.0,96,-99.99,,,-99.99,,2013-02-21 12:01:00,
2013-02-21 04:11:00,33.0,32.0,30.16,WNW,283,0.0,-999.0,96,-99.99,,,-99.99,,2013-02-21 12:11:00,
2013-02-21 04:21:00,33.0,32.0,30.16,WNW,283,0.0,-999.0,96,-99.99,,,-99.99,,2013-02-21 12:21:00,
2013-02-21 04:32:00,33.0,32.0,30.15,West,275,0.0,-999.0,96,-99.99,,,-99.99,,2013-02-21 12:32:00,
2013-02-21 04:42:00,32.0,31.0,30.15,West,275,0.0,-999.0,96,-99.99,,,-99.99,,2013-02-21 12:42:00,
2013-02-21 04:52:00,32.0,31.0,30.15,West,275,0.0,-999.0,96,-99.99,,,-99.99,,2013-02-21 12:52:00,
2013-02-21 05:01:00,32.0,31.0,30.15,West,275,0.0,-999.0,96,-99.99,,,-99.99,,2013-02-21 13:01:00,
2013-02-21 05:11:00,32.0,31.0,30.15,West,275,0.0,-999.0,96,-99.99,,,-99.99,,2013-02-21 13:11:00,
2013-02-21 05:22:00,32.0,31.0,30.16,West,275,0.0,-999.0,96,-99.99,,,-99.99,,2013-02-21 13:22:00,
2013-02-21 05:31:00,32.0,31.0,30.16,West,275,0.0,-999.0,96,-99.99,,,-99.99,,2013-02-21 13:31:00,
2013-02-21 05:42:00,32.0,31.0,30.16,West,275,0.0,-999.0,96,-99.99,,,-99.99,,2013-02-21 13:42:00,
2013-02-21 05:52:00,32.0,31.0,30.16,West,275,0.0,-999.0,96,-99.99,,,-99.99,,2013-02-21 13:52:00,
2013-02-21 06:01:00,33.0,32.0,30.16,West,275,0.0,-999.0,96,-99.99,,,-99.99,,2013-02-21 14:01:00,
2013-02-21 06:11:00,33.0,32.0,30.16,West,275,0.0,-999.0,96,-99.99,,,-99.99,,2013-02-21 14:11:00,
2013-02-21 06:21:00,33.0,32.0,30.17,West,275,0.0,-999.0,96,-99.99,,,-99.99,,2013-02-21 14:21:00,
2013-02-21 06:31:00,33.0,32.0,30.17,West,275,0.0,-999.0,96,-99.99,,,-99.99,,2013-02-21 14:31:00,
2013-02-21 06:41:00,33.0,32.0,30.17,West,275,0.0,-999.0,96,-99.99,,,-99.99,,2013-02-21 14:41:00,
2013-02-21 06:52:00,33.0,32.0,30.17,West,275,0.0,-999.0,96,-99.99,,,-99.99,,2013-02-21 14:52:00,
2013-02-21 07:01:00,33.0,32.0,30.17,West,275,0.0,-999.0,96,-99.99,,,-99.99,,2013-02-21 15:01:00,
2013-02-21 07:11:00,33.0,32.0,30.17,West,275,0.0,-999.0,96,-99.99,,,-99.99,,2013-02-21 15:11:00,
2013-02-21 07:21:00,34.0,33.0,30.18,West,275,0.0,-999.0,97,-99.99,,,-99.99,,2013-02-21 15:21:00,
2013-02-21 07:31:00,34.0,33.0,30.17,West,275,0.0,-999.0,97,-99.99,,,-99.99,,2013-02-21 15:31:00,
2013-02-21 07:42:00,34.0,33.0,30.17,West,275,0.0,-999.0,97,-99.99,,,-99.99,,2013-02-21 15:42:00,
2013-02-21 07:52:00,35.0,34.0,30.18,West,275,0.0,-999.0,97,-99.99,,,-99.99,,2013-02-21 15:52:00,
2013-02-21 08:01:00,35.0,34.0,30.19,West,275,0.0,-999.0,97,-99.99,,,-99.99,,2013-02-21 16:01:00,
2013-02-21 08:12:00,35.0,34.0,30.19,West,275,0.0,-999.0,97,-99.99,,,-99.99,,2013-02-21 16:12:00,
2013-02-21 08:21:00,35.0,34.0,30.19,West,275,0.0,-999.0,97,-99.99,,,-99.99,,2013-02-21 16:21:00,
2013-02-21 08:31:00,36.0,35.0,30.19,West,261,0.0,-999.0,97,-99.99,,,-99.99,,2013-02-21 16:31:00,
2013-02-21 08:41:00,37.0,36.0,30.19,SSW,213,0.0,-999.0,98,-99.99,,,-99.99,,2013-02-21 16:41:00,
2013-02-21 08:52:00,37.0,36.0,30.19,SSW,213,0.0,-999.0,98,-99.99,,,-99.99,,2013-02-21 16:52:00,
2013-02-21 09:01:00,37.0,36.0,30.19,SSW,213,0.0,-999.0,98,-99.99,,,-99.99,,2013-02-21 17:01:00,
2013-02-21 09:11:00,39.0,38.0,30.20,SSW,213,0.0,-999.0,98,-99.99,,,-99.99,,2013-02-21 17:11:00,
2013-02-21 09:21:00,39.0,38.0,30.20,SSW,213,0.0,-999.0,98,-99.99,,,-99.99,,2013-02-21 17:21:00,
2013-02-21 09:32:00,39.0,38.0,30.20,SW,215,0.0,-999.0,98,-99.99,,,-99.99,,2013-02-21 17:32:00,
2013-02-21 09:42:00,39.0,38.0,30.20,SW,215,0.0,-999.0,98,-99.99,,,-99.99,,2013-02-21 17:42:00,
2013-02-21 09:52:00,40.0,39.0,30.20,SW,215,0.0,-999.0,98,-99.99,,,-99.99,,2013-02-21 17:52:00,
2013-02-21 10:01:00,40.0,39.0,30.20,SW,215,0.0,-999.0,98,-99.99,,,-99.99,,2013-02-21 18:01:00,
2013-02-21 10:11:00,40.0,39.0,30.20,SW,215,0.0,-999.0,98,-99.99,,,-99.99,,2013-02-21 18:11:00,
2013-02-21 10:21:00,41.0,40.0,30.21,SW,215,0.0,-999.0,98,-99.99,,,-99.99,,2013-02-21 18:21:00,
2013-02-21 10:31:00,41.0,40.0,30.21,SW,215,0.0,-999.0,98,-99.99,,,-99.99,,2013-02-21 18:31:00,
2013-02-21 10:42:00,41.0,40.0,30.21,SW,215,0.0,-999.0,98,-99.99,,,-99.99,,2013-02-21 18:42:00,
2013-02-21 10:51:00,42.0,41.0,30.20,SSW,210,0.0,-999.0,98,-99.99,,,-99.99,,2013-02-21 18:51:00,
2013-02-21 11:01:00,43.0,42.0,30.19,SSW,202,3.0,-999.0,96,-99.99,,,-99.99,,2013-02-21 19:01:00,
2013-02-21 11:11:00,43.0,42.0,30.19,SSW,202,3.0,-999.0,96,-99.99,,,-99.99,,2013-02-21 19:11:00,
2013-02-21 11:21:00,45.0,40.0,30.19,SSW,194,4.0,-999.0,84,-99.99,,,-99.99,,2013-02-21 19:21:00,
2013-02-21 11:31:00,46.0,41.0,30.20,SSW,203,5.0,-999.0,81,-99.99,,,-99.99,,2013-02-21 19:31:00,
2013-02-21 11:41:00,46.0,41.0,30.20,SSW,203,5.0,-999.0,81,-99.99,,,-99.99,,2013-02-21 19:41:00,
2013-02-21 11:52:00,46.0,40.0,30.19,South,180,3.0,-999.0,79,-99.99,,,-99.99,,2013-02-21 19:52:00,
2013-02-21 12:01:00,46.0,40.0,30.19,South,180,3.0,-999.0,79,-99.99,,,-99.99,,2013-02-21 20:01:00,
2013-02-21 12:11:00,46.0,41.0,30.19,SSW,202,4.0,-999.0,81,-99.99,,,-99.99,,2013-02-21 20:11:00,
2013-02-21 12:21:00,46.0,41.0,30.19,SSW,202,4.0,-999.0,81,-99.99,,,-99.99,,2013-02-21 20:21:00,
2013-02-21 12:32:00,46.0,41.0,30.19,WSW,252,1.0,-999.0,84,-99.99,,,-99.99,,2013-02-21 20:32:00,
2013-02-21 12:42:00,46.0,41.0,30.19,WSW,252,1.0,-999.0,84,-99.99,,,-99.99,,2013-02-21 20:42:00,
2013-02-21 12:52:00,45.0,41.0,30.19,SW,221,2.0,-999.0,86,-99.99,,,-99.99,,2013-02-21 20:52:00,
2013-02-21 13:02:00,45.0,41.0,30.19,SW,232,1.0,-999.0,87,-99.99,,,-99.99,,2013-02-21 21:02:00,
2013-02-21 13:11:00,44.0,41.0,30.18,South,170,1.0,-999.0,88,-99.99,,,-99.99,,2013-02-21 21:11:00,
2013-02-21 13:21:00,44.0,41.0,30.18,South,170,1.0,-999.0,88,-99.99,,,-99.99,,2013-02-21 21:21:00,
2013-02-21 13:31:00,44.0,40.0,30.17,South,169,4.0,-999.0,87,-99.99,,,-99.99,,2013-02-21 21:31:00,
2013-02-21 13:41:00,45.0,42.0,30.17,SE,144,2.0,-999.0,88,-99.99,,,-99.99,,2013-02-21 21:41:00,
2013-02-21 13:52:00,45.0,42.0,30.17,SE,144,2.0,-999.0,88,-99.99,,,-99.99,,2013-02-21 21:52:00,
2013-02-21 14:01:00,45.0,41.0,30.17,South,173,2.0,-999.0,87,-99.99,,,-99.99,,2013-02-21 22:01:00,
2013-02-21 14:11:00,45.0,41.0,30.17,South,173,2.0,-999.0,87,-99.99,,,-99.99,,2013-02-21 22:11:00,
2013-02-21 14:21:00,45.0,41.0,30.17,SW,219,2.0,-999.0,86,-99.99,,,-99.99,,2013-02-21 22:21:00,
2013-02-21 14:31:00,45.0,41.0,30.16,SSW,196,2.0,-999.0,86,-99.99,,,-99.99,,2013-02-21 22:31:00,
2013-02-21 14:41:00,45.0,41.0,30.16,SSW,203,2.0,-999.0,85,-99.99,,,-99.99,,2013-02-21 22:41:00,
2013-02-21 14:52:00,45.0,41.0,30.16,SSW,203,2.0,-999.0,85,-99.99,,,-99.99,,2013-02-21 22:52:00,
2013-02-21 15:01:00,46.0,41.0,30.17,South,177,2.0,-999.0,84,-99.99,,,-99.99,,2013-02-21 23:01:00,
2013-02-21 15:11:00,46.0,41.0,30.17,South,177,2.0,-999.0,84,-99.99,,,-99.99,,2013-02-21 23:11:00,
2013-02-21 15:21:00,45.0,38.0,30.16,SW,223,5.0,-999.0,77,-99.99,,,-99.99,,2013-02-21 23:21:00,
2013-02-21 15:31:00,45.0,38.0,30.16,SW,223,5.0,-999.0,77,-99.99,,,-99.99,,2013-02-21 23:31:00,
2013-02-21 15:41:00,45.0,38.0,30.16,SW,223,5.0,-999.0,77,-99.99,,,-99.99,,2013-02-21 23:41:00,
2013-02-21 15:52:00,45.0,39.0,30.16,SSW,196,4.0,-999.0,79,-99.99,,,-99.99,,2013-02-21 23:52:00,
2013-02-21 16:01:00,45.0,39.0,30.15,SW,227,4.0,-999.0,80,-99.99,,,-99.99,,2013-02-22 00:01:00,
2013-02-21 16:11:00,45.0,39.0,30.15,SW,227,4.0,-999.0,80,-99.99,,,-99.99,,2013-02-22 00:11:00,
2013-02-21 16:21:00,45.0,39.0,30.15,SSW,195,3.0,-999.0,78,-99.99,,,-99.99,,2013-02-22 00:21:00,
2013-02-21 16:31:00,46.0,40.0,30.15,SSW,201,2.0,-999.0,79,-99.99,,,-99.99,,2013-02-22 00:31:00,
2013-02-21 16:41:00,46.0,40.0,30.15,SSW,201,2.0,-999.0,79,-99.99,,,-99.99,,2013-02-22 00:41:00,
2013-02-21 16:52:00,45.0,39.0,30.14,SW,217,4.0,-999.0,79,-99.99,,,-99.99,,2013-02-22 00:52:00,
2013-02-21 17:01:00,45.0,38.0,30.15,SW,234,4.0,-999.0,77,-99.99,,,-99.99,,2013-02-22 01:01:00,
2013-02-21 17:11:00,45.0,38.0,30.15,SW,234,4.0,-999.0,77,-99.99,,,-99.99,,2013-02-22 01:11:00,
2013-02-21 17:21:00,45.0,39.0,30.15,West,267,4.0,-999.0,78,-99.99,,,-99.99,,2013-02-22 01:21:00,
2013-02-21 17:32:00,45.0,39.0,30.15,SSW,198,3.0,-999.0,80,-99.99,,,-99.99,,2013-02-22 01:32:00,
2013-02-21 17:41:00,45.0,39.0,30.15,SSW,198,3.0,-999.0,80,-99.99,,,-99.99,,2013-02-22 01:41:00,
2013-02-21 17:51:00,44.0,39.0,30.15,SSW,200,5.0,-999.0,81,-99.99,,,-99.99,,2013-02-22 01:51:00,
2013-02-21 18:01:00,44.0,39.0,30.15,SSW,200,5.0,-999.0,81,-99.99,,,-99.99,,2013-02-22 02:01:00,
2013-02-21 18:11:00,44.0,39.0,30.15,SSW,200,5.0,-999.0,81,-99.99,,,-99.99,,2013-02-22 02:11:00,
2013-02-21 18:21:00,44.0,39.0,30.15,SSW,204,3.0,-999.0,82,-99.99,,,-99.99,,2013-02-22 02:21:00,
2013-02-21 18:31:00,43.0,38.0,30.16,South,191,3.0,-999.0,82,-99.99,,,-99.99,,2013-02-22 02:31:00,
2013-02-21 18:42:00,43.0,38.0,30.16,SE,146,4.0,-999.0,83,-99.99,,,-99.99,,2013-02-22 02:42:00,
2013-02-21 18:52:00,43.0,38.0,30.16,SE,146,4.0,-999.0,83,-99.99,,,-99.99,,2013-02-22 02:52:00,
2013-02-21 19:01:00,43.0,38.0,30.16,SE,146,4.0,-999.0,83,-99.99,,,-99.99,,2013-02-22 03:01:00,
2013-02-21 19:11:00,43.0,38.0,30.16,SE,146,4.0,-999.0,83,-99.99,,,-99.99,,2013-02-22 03:11:00,
2013-02-21 19:21:00,43.0,38.0,30.16,SE,146,4.0,-999.0,83,-99.99,,,-99.99,,2013-02-22 03:21:00,
2013-02-21 19:31:00,43.0,39.0,30.17,South,170,5.0,-999.0,86,-99.99,,,-99.99,,2013-02-22 03:31:00,
2013-02-21 19:42:00,43.0,39.0,30.17,South,170,5.0,-999.0,86,-99.99,,,-99.99,,2013-02-22 03:42:00,
2013-02-21 19:52:00,43.0,39.0,30.17,South,184,5.0,-999.0,86,-99.99,,,-99.99,,2013-02-22 03:52:00,
2013-02-21 20:01:00,43.0,39.0,30.17,SE,142,4.0,-999.0,87,-99.99,,,-99.99,,2013-02-22 04:01:00,
2013-02-21 20:11:00,43.0,40.0,30.17,SSW,192,4.0,-999.0,88,-99.99,,,-99.99,,2013-02-22 04:11:00,
2013-02-21 20:21:00,43.0,40.0,30.17,SSW,192,4.0,-999.0,88,-99.99,,,-99.99,,2013-02-22 04:21:00,
2013-02-21 20:31:00,43.0,40.0,30.17,SSW,192,4.0,-999.0,88,-99.99,,,-99.99,,2013-02-22 04:31:00,
2013-02-21 20:41:00,43.0,40.0,30.17,SSW,192,4.0,-999.0,88,-99.99,,,-99.99,,2013-02-22 04:41:00,
2013-02-21 20:51:00,43.0,40.0,30.16,SSW,207,3.0,-999.0,88,-99.99,,,-99.99,,2013-02-22 04:51:00,
2013-02-21 21:01:00,43.0,40.0,30.16,SSE,166,4.0,-999.0,88,-99.99,,,-99.99,,2013-02-22 05:01:00,
2013-02-21 21:11:00,43.0,40.0,30.16,SSE,166,4.0,-999.0,88,-99.99,,,-99.99,,2013-02-22 05:11:00,
2013-02-21 21:21:00,43.0,40.0,30.16,SSE,165,5.0,-999.0,89,-99.99,,,-99.99,,2013-02-22 05:21:00,
2013-02-21 21:32:00,43.0,40.0,30.16,South,176,4.0,-999.0,89,-99.99,,,-99.99,,2013-02-22 05:32:00,
2013-02-21 21:41:00,43.0,40.0,30.16,South,176,4.0,-999.0,89,-99.99,,,-99.99,,2013-02-22 05:41:00,
2013-02-21 21:52:00,43.0,40.0,30.17,South,173,4.0,-999.0,90,-99.99,,,-99.99,,2013-02-22 05:52:00,
2013-02-21 22:01:00,43.0,41.0,30.16,SSW,200,3.0,-999.0,91,-99.99,,,-99.99,,2013-02-22 06:01:00,
2013-02-21 22:11:00,43.0,41.0,30.16,SSW,200,3.0,-999.0,91,-99.99,,,-99.99,,2013-02-22 06:11:00,
2013-02-21 22:21:00,43.0,41.0,30.16,SSW,200,3.0,-999.0,91,-99.99,,,-99.99,,2013-02-22 06:21:00,
2013-02-21 22:31:00,43.0,41.0,30.17,South,176,1.0,-999.0,91,-99.99,,,-99.99,,2013-02-22 06:31:00,
2013-02-21 22:41:00,43.0,41.0,30.17,South,176,1.0,-999.0,91,-99.99,,,-99.99,,2013-02-22 06:41:00,
2013-02-21 22:52:00,42.0,40.0,30.18,South,191,4.0,-999.0,91,-99.99,,,-99.99,,2013-02-22 06:52:00,
2013-02-21 23:01:00,42.0,40.0,30.18,SSE,161,5.0,-999.0,92,-99.99,,,-99.99,,2013-02-22 07:01:00,
2013-02-21 23:11:00,42.0,40.0,30.18,South,186,2.0,-999.0,92,-99.99,,,-99.99,,2013-02-22 07:11:00,
2013-02-21 23:21:00,42.0,40.0,30.18,South,186,2.0,-999.0,92,-99.99,,,-99.99,,2013-02-22 07:21:00,
2013-02-21 23:31:00,42.0,40.0,30.18,South,186,2.0,-999.0,92,-99.99,,,-99.99,,2013-02-22 07:31:00,
2013-02-21 23:42:00,42.0,40.0,30.18,South,172,2.0,-999.0,92,-99.99,,,-99.99,,2013-02-22 07:42:00,
2013-02-21 23:52:00,42.0,40.0,30.18,South,172,2.0,-999.0,92,-99.99,,,-99.99,,2013-02-22 07:52:00,